Weather History for Ft Riley, KS

Change the Weather History Date:

Tuesday, August 6, 2013

  Actual Average (KMHK) Record (KMHK)
Temperature  
Mean Temperature 80 °F 79 °F  
Max Temperature 89 °F 91 °F 108 °F (2006)
Min Temperature 71 °F 67 °F 55 °F (2004)
Degree Days  
Heating Degree Days 0 0  
Month to date heating degree days 0  
Since 1 June heating degree days 12  
Since 1 July heating degree days 1  
Cooling Degree Days 14 14  
Month to date cooling degree days 84  
Year to date cooling degree days 890  
Since 1 June cooling degree days 790  
Growing Degree Days 30 (Base 50)    
Moisture  
Dew Point 74 °F    
Average Humidity 83    
Maximum Humidity 100    
Minimum Humidity 58    
Precipitation  
Precipitation 0.00 in 0.09 in 0.07 in (2014)
Month to date precipitation 0.55  
Year to date precipitation 20.81  
Sea Level Pressure  
Sea Level Pressure 29.82 in    
Wind  
Wind Speed 4 mph (SE)    
Max Wind Speed 12 mph    
Max Gust Speed -    
Visibility 10 miles    
Events      
T = Trace of Precipitation, MM = Missing Value Source: NWS Daily Summary

Daily Weather History Graph

Daily Weather History Graph

Search for Another Location

Airport:

Trip Planner

Search our weather history database for the weather conditions in past years. The results will help you decide how hot, cold, wet, or windy it might be!

Date:

Astronomy

Aug. 06, 2013 Rise Set
Actual Time 6:32 AM CDT 8:32 PM CDT
Civil Twilight 6:03 AM CDT 9:02 PM CDT
Nautical Twilight 5:27 AM CDT 9:37 PM CDT
Astronomical Twilight 4:48 AM CDT 10:16 PM CDT
Moon 6:24 AM CDT (8/6) 8:09 PM CDT (8/6)
Length of Visible Light 14h 58m
Length of Day
14h 00m
Waning Crescent, 0% of the Moon is Illuminated
Aug 6
Waning Crescent
Aug 6
New
Aug 14
First Quarter
Aug 20
Full
Aug 28
Last Quarter

Hourly Weather History & Observations

Time (CDT) Temp. Heat Index Dew Point Humidity Pressure Visibility Wind Dir Wind Speed Gust Speed Precip Events Conditions
12:13 AM 75.2 °F - 75.2 °F 100% 29.88 in 9.0 mi SSW 5.8 mph - N/A   Mostly Cloudy
12:18 AM 77.0 °F - 77.0 °F 100% 29.88 in 10.0 mi SSW 4.6 mph - N/A   Mostly Cloudy
12:33 AM 77.0 °F - 77.0 °F 100% 29.89 in 10.0 mi Calm Calm - N/A   Overcast
12:58 AM 77.0 °F - 76.3 °F 98% 29.87 in 10.0 mi NNE 3.5 mph - N/A   Overcast
1:13 AM 75.2 °F - 75.2 °F 100% 29.90 in 7.0 mi NNE 5.8 mph - N/A   Overcast
1:58 AM 75.2 °F - 75.2 °F 100% 29.83 in 8.0 mi West 3.5 mph - N/A   Partly Cloudy
2:58 AM 74.3 °F - 74.3 °F 100% 29.83 in 8.0 mi SE 2.3 mph - N/A   Partly Cloudy
3:58 AM 72.7 °F - 72.7 °F 100% 29.82 in 10.0 mi SW 2.3 mph - N/A   Clear
4:58 AM 71.4 °F - 71.4 °F 100% 29.81 in 10.0 mi Variable 1.2 mph - N/A   Clear
5:58 AM 71.6 °F - 71.6 °F 100% 29.80 in 10.0 mi Calm Calm - N/A   Clear
6:58 AM 71.6 °F - 71.6 °F 100% 29.80 in 10.0 mi Variable 1.2 mph - N/A   Clear
7:58 AM 73.4 °F - 70.0 °F 89% 29.82 in 10.0 mi Variable 5.8 mph - N/A   Clear
8:58 AM 76.8 °F - 69.6 °F 78% 29.83 in 10.0 mi SSE 5.8 mph - N/A   Clear
9:58 AM 81.7 °F 85.6 °F 70.7 °F 69% 29.84 in 10.0 mi South 4.6 mph - N/A   Clear
10:58 AM 84.6 °F 89.4 °F 70.7 °F 63% 29.84 in 10.0 mi Variable 1.2 mph - N/A   Clear
11:21 AM 84.2 °F 89.6 °F 71.6 °F 66% 29.87 in 10.0 mi Variable 2.3 mph - N/A   Light Drizzle
11:32 AM 86.0 °F 91.8 °F 71.6 °F 62% 29.87 in 10.0 mi NNE 4.6 mph - N/A   Clear
11:58 AM 85.6 °F 91.1 °F 71.2 °F 62% 29.84 in 10.0 mi Variable 2.3 mph - 0.00 in   Clear
12:58 PM 85.8 °F 92.6 °F 72.9 °F 65% 29.83 in 10.0 mi Variable 5.8 mph - N/A   Partly Cloudy
1:58 PM 87.8 °F 93.8 °F 71.6 °F 58% 29.81 in 10.0 mi East 5.8 mph - N/A   Clear
2:58 PM 88.7 °F 96.2 °F 72.9 °F 59% 29.78 in 10.0 mi SE 10.4 mph - N/A   Partly Cloudy
3:58 PM 87.6 °F 96.2 °F 74.1 °F 64% 29.78 in 10.0 mi SSE 11.5 mph - N/A   Mostly Cloudy
4:58 PM 86.4 °F 96.4 °F 75.9 °F 71% 29.77 in 10.0 mi SE 8.1 mph - N/A   Partly Cloudy
5:58 PM 87.8 °F 97.6 °F 75.2 °F 66% 29.77 in 10.0 mi SSE 10.4 mph - N/A   Partly Cloudy
6:58 PM 85.5 °F 93.8 °F 74.8 °F 70% 29.77 in 10.0 mi SSE 5.8 mph - N/A   Clear
7:58 PM 83.7 °F 92.4 °F 76.3 °F 78% 29.77 in 10.0 mi ESE 4.6 mph - N/A   Clear
8:58 PM 81.1 °F 88.0 °F 76.6 °F 86% 29.78 in 10.0 mi NNW 2.3 mph - N/A   Partly Cloudy
9:58 PM 79.2 °F - 79.0 °F 99% 29.81 in 10.0 mi NE 3.5 mph - N/A   Partly Cloudy
10:58 PM 80.4 °F 86.5 °F 76.6 °F 88% 29.81 in 10.0 mi SE 3.5 mph - N/A   Scattered Clouds
11:58 PM 78.6 °F - 78.4 °F 99% 29.81 in 10.0 mi NNE 3.5 mph - N/A   Clear